| time (UTC) | temp F | wind direction | speed MPH | gust MPH | rain 1hr in | rain 24hr in | rain mn in | humidity % | barometer mb |
| 20260505224534 | 52 | 27 | 6.0 | 16.0 | 0.00 | 0.00 | 0.00 | 75 | 1008.3 |
| 20260505223028 | 52 | 360 | 6.0 | 14.0 | 0.00 | 0.00 | 0.00 | 74 | 1008.3 |
| 20260505221526 | 53 | 54 | 6.0 | 13.0 | 0.00 | 0.00 | 0.00 | 74 | 1008.2 |
| 20260505220026 | 53 | 35 | 6.0 | 21.0 | 0.00 | 0.00 | 0.00 | 74 | 1007.8 |
| 20260505214541 | 53 | 38 | 6.0 | 18.0 | 0.00 | 0.00 | 0.00 | 72 | 1007.5 |
| 20260505213021 | 54 | 30 | 9.0 | 18.0 | 0.00 | 0.00 | 0.00 | 72 | 1006.9 |
| 20260505211518 | 54 | 24 | 9.0 | 17.0 | 0.00 | 0.00 | 0.00 | 72 | 1007.1 |
| 20260505210019 | 54 | 12 | 8.0 | 14.0 | 0.00 | 0.00 | 0.00 | 73 | 1006.6 |
| 20260505204519 | 54 | 9 | 8.0 | 17.0 | 0.00 | 0.00 | 0.00 | 74 | 1006.8 |
| 20260505203022 | 54 | 9 | 5.0 | 13.0 | 0.00 | 0.00 | 0.00 | 75 | 1008.0 |
| 20260505201517 | 54 | 13 | 8.0 | 18.0 | 0.00 | 0.00 | 0.00 | 75 | 1006.6 |
| 20260505200009 | 54 | 9 | 8.0 | 17.0 | 0.00 | 0.00 | 0.00 | 76 | 1006.4 |
| 20260505194507 | 54 | 9 | 8.0 | 17.0 | 0.00 | 0.00 | 0.00 | 76 | 1006.5 |
| 20260505193009 | 54 | 9 | 7.0 | 18.0 | 0.00 | 0.00 | 0.00 | 78 | 1006.5 |
| 20260505191506 | 54 | 11 | 9.0 | 19.0 | 0.00 | 0.00 | 0.00 | 78 | 1006.5 |
| 20260505190002 | 54 | 9 | 8.0 | 16.0 | 0.00 | 0.00 | 0.00 | 79 | 1006.2 |
| 20260505184559 | 54 | 5 | 7.0 | 17.0 | 0.00 | 0.00 | 0.00 | 80 | 1006.4 |
| 20260505183056 | 55 | 54 | 8.0 | 14.0 | 0.00 | 0.00 | 0.00 | 79 | 1006.2 |
| 20260505181553 | 55 | 54 | 7.0 | 16.0 | 0.00 | 0.00 | 0.00 | 78 | 1006.2 |
| 20260505180104 | 56 | 17 | 11.0 | 20.0 | 0.00 | 0.00 | 0.00 | 77 | 1005.6 |
| 20260505174559 | 56 | 13 | 7.0 | 17.0 | 0.00 | 0.00 | 0.00 | 78 | 1005.2 |
| 20260505173046 | 56 | 57 | 6.0 | 14.0 | 0.00 | 0.00 | 0.00 | 79 | 1005.1 |
| 20260505171546 | 56 | 49 | 5.0 | 16.0 | 0.00 | 0.00 | 0.00 | 80 | 1004.9 |
| 20260505170040 | 56 | 38 | 4.0 | 14.0 | 0.00 | 0.00 | 0.00 | 80 | 1004.6 |
| 20260505164538 | 56 | 33 | 7.0 | 17.0 | 0.00 | 0.00 | 0.00 | 81 | 1004.5 |
| 20260505163035 | 57 | 19 | 5.0 | 14.0 | 0.00 | 0.00 | 0.00 | 81 | 1004.1 |
| 20260505161535 | 57 | 39 | 6.0 | 15.0 | 0.00 | 0.00 | 0.00 | 82 | 1003.7 |
| 20260505153021 | 59 | 49 | 8.0 | 17.0 | 0.00 | 0.00 | 0.00 | 82 | 1002.2 |
| 20260505151517 | 60 | 5 | 9.0 | 18.0 | 0.00 | 0.00 | 0.00 | 82 | 1001.8 |
| 20260505140110 | 70 | 23 | 2.0 | 5.0 | 0.00 | 0.00 | 0.00 | 81 | 999.5 |
| 20260505124555 | 68 | 26 | 0.0 | 2.0 | 0.00 | 0.00 | 0.00 | 82 | 998.9 |
| 20260505123101 | 68 | 23 | 0.0 | 1.0 | 0.00 | 0.00 | 0.00 | 81 | 999.0 |
| 20260505121551 | 68 | 23 | 0.0 | 2.0 | 0.00 | 0.00 | 0.00 | 80 | 998.6 |
| 20260505120051 | 68 | 23 | 0.0 | 4.0 | 0.00 | 0.00 | 0.00 | 80 | 998.4 |
| 20260505114549 | 69 | 25 | 2.0 | 6.0 | 0.00 | 0.00 | 0.00 | 79 | 998.2 |
| 20260505113051 | 69 | 222 | 3.0 | 11.0 | 0.00 | 0.00 | 0.00 | 79 | 997.1 |
| 20260505111545 | 69 | 156 | 3.0 | 10.0 | 0.00 | 0.00 | 0.00 | 78 | 996.7 |
| 20260505101539 | 71 | 360 | 4.0 | 10.0 | 0.00 | 0.00 | 0.00 | 77 | 996.3 |
| 20260505100038 | 71 | 360 | 4.0 | 14.0 | 0.00 | 0.00 | 0.00 | 77 | 996.3 |
| 20260505094636 | 71 | 360 | 4.0 | 10.0 | 0.00 | 0.00 | 0.00 | 77 | 996.2 |
| 20260505093038 | 71 | 360 | 4.0 | 11.0 | 0.00 | 0.00 | 0.00 | 77 | 996.2 |
| 20260505091540 | 71 | 360 | 5.0 | 10.0 | 0.00 | 0.00 | 0.00 | 77 | 996.1 |
| 20260505090031 | 71 | 189 | 5.0 | 10.0 | 0.00 | 0.00 | 0.00 | 77 | 996.3 |
| 20260505084532 | 71 | 237 | 4.0 | 9.0 | 0.00 | 0.00 | 0.00 | 77 | 996.5 |
| 20260505083027 | 71 | 360 | 4.0 | 9.0 | 0.00 | 0.00 | 0.00 | 76 | 996.6 |
| 20260505081523 | 72 | 360 | 4.0 | 12.0 | 0.00 | 0.00 | 0.00 | 76 | 996.9 |
| 20260505080021 | 71 | 207 | 5.0 | 10.0 | 0.00 | 0.00 | 0.00 | 76 | 997.0 |
| 20260505074519 | 71 | 360 | 6.0 | 12.0 | 0.00 | 0.00 | 0.00 | 76 | 997.0 |
| 20260505073017 | 71 | 360 | 3.0 | 11.0 | 0.00 | 0.00 | 0.00 | 76 | 997.3 |
| 20260505071515 | 72 | 360 | 5.0 | 14.0 | 0.00 | 0.00 | 0.00 | 75 | 997.5 |
| 20260505070013 | 72 | 139 | 5.0 | 13.0 | 0.00 | 0.00 | 0.00 | 75 | 997.6 |
| 20260505064509 | 72 | 360 | 6.0 | 14.0 | 0.00 | 0.00 | 0.00 | 74 | 997.8 |
| 20260505063007 | 73 | 360 | 6.0 | 16.0 | 0.00 | 0.00 | 0.00 | 74 | 997.9 |
| 20260505061508 | 73 | 360 | 7.0 | 15.0 | 0.00 | 0.00 | 0.00 | 73 | 997.9 |
| 20260505060003 | 73 | 159 | 6.0 | 16.0 | 0.00 | 0.00 | 0.00 | 73 | 998.0 |
| 20260505054608 | 73 | 360 | 6.0 | 18.0 | 0.00 | 0.00 | 0.00 | 73 | 998.3 |
| 20260505053059 | 73 | 360 | 5.0 | 12.0 | 0.00 | 0.00 | 0.00 | 72 | 998.3 |
| 20260505051611 | 74 | 360 | 6.0 | 15.0 | 0.00 | 0.00 | 0.00 | 72 | 998.5 |
| 20260505041550 | 74 | 360 | 6.0 | 15.0 | 0.00 | 0.00 | 0.00 | 70 | 998.9 |
| 20260505040048 | 75 | 360 | 6.0 | 13.0 | 0.00 | 0.00 | 0.00 | 70 | 999.1 |
| 20260505034546 | 75 | 360 | 6.0 | 13.0 | 0.00 | 0.00 | 0.00 | 70 | 999.1 |
| 20260505033146 | 75 | 360 | 5.0 | 14.0 | 0.00 | 0.00 | 0.00 | 69 | 999.0 |
| 20260505031553 | 75 | 360 | 5.0 | 13.0 | 0.00 | 0.00 | 0.00 | 68 | 998.8 |
| 20260505030045 | 75 | 360 | 5.0 | 11.0 | 0.00 | 0.00 | 0.00 | 68 | 998.8 |
| 20260505024550 | 76 | 360 | 5.0 | 15.0 | 0.00 | 0.00 | 0.00 | 67 | 998.6 |
| 20260505023043 | 76 | 360 | 5.0 | 14.0 | 0.00 | 0.00 | 0.00 | 66 | 998.3 |
| 20260505021547 | 76 | 360 | 5.0 | 12.0 | 0.00 | 0.00 | 0.00 | 66 | 998.4 |
| 20260505020042 | 77 | 360 | 6.0 | 15.0 | 0.00 | 0.00 | 0.00 | 65 | 998.3 |
| 20260505014541 | 77 | 125 | 6.0 | 14.0 | 0.00 | 0.00 | 0.00 | 63 | 998.4 |
| 20260505013040 | 78 | 184 | 7.0 | 14.0 | 0.00 | 0.00 | 0.00 | 62 | 998.1 |
| 20260505011539 | 78 | 182 | 6.0 | 18.0 | 0.00 | 0.00 | 0.00 | 62 | 998.2 |
| 20260505010039 | 79 | 146 | 6.0 | 19.0 | 0.00 | 0.00 | 0.00 | 61 | 998.5 |
| 20260505004538 | 79 | 205 | 7.0 | 22.0 | 0.00 | 0.00 | 0.00 | 60 | 998.6 |
| 20260505003037 | 80 | 148 | 6.0 | 16.0 | 0.00 | 0.00 | 0.00 | 60 | 998.6 |
| 20260505001535 | 81 | 167 | 6.0 | 18.0 | 0.00 | 0.00 | 0.00 | 59 | 998.6 |
| 20260505000043 | 81 | 170 | 6.0 | 16.0 | 0.00 | 0.00 | 0.00 | 59 | 998.8 |
| 20260504234535 | 81 | 143 | 7.0 | 14.0 | 0.00 | 0.00 | 0.00 | 57 | 999.0 |
| 20260504233033 | 83 | 159 | 7.0 | 13.0 | 0.00 | 0.00 | 0.00 | 54 | 999.2 |
| 20260504231530 | 82 | 160 | 7.0 | 16.0 | 0.00 | 0.00 | 0.00 | 54 | 999.1 |
| 20260504230028 | 82 | 138 | 8.0 | 16.0 | 0.00 | 0.00 | 0.00 | 53 | 999.3 |